owner,sensor,date,latitude,longitude,vertical_datum,wind_speed,wind_to_direction,wind_speed_of_gust,qcFlag 
DISL,ioos:station:DISL:DISL:1,2014-08-01T00:00:00Z,30.2513,-88.0778,9.68,2.3,257.5,-9999.0,'1111122,1111122,1111122' 
DISL,ioos:station:DISL:DISL:1,2014-08-01T00:30:00Z,30.2513,-88.0778,9.68,2.3,267.5,-9999.0,'1111122,1111122,1111122' 
DISL,ioos:station:DISL:DISL:1,2014-08-01T01:00:00Z,30.2513,-88.0778,9.68,2.12,257.6,-9999.0,'1111122,1111122,1111122' 
DISL,ioos:station:DISL:DISL:1,2014-08-01T01:30:00Z,30.2513,-88.0778,9.68,2.14,270.5,-9999.0,'1111122,1111122,1111122' 
DISL,ioos:station:DISL:DISL:1,2014-08-01T02:00:00Z,30.2513,-88.0778,9.68,1.86,265.3,-9999.0,'1111122,1111122,1111122' 
DISL,ioos:station:DISL:DISL:1,2014-08-01T02:30:00Z,30.2513,-88.0778,9.68,1.24,254.0,-9999.0,'1111122,1111122,1111122' 
DISL,ioos:station:DISL:DISL:1,2014-08-01T03:00:00Z,30.2513,-88.0778,9.68,0.51,251.8,-9999.0,'1111122,1111122,1111122' 
DISL,ioos:station:DISL:DISL:1,2014-08-01T03:30:00Z,30.2513,-88.0778,9.68,1.61,289.1,-9999.0,'1111122,1111122,1111122' 
DISL,ioos:station:DISL:DISL:1,2014-08-01T04:00:00Z,30.2513,-88.0778,9.68,0.11,303.6,-9999.0,'1111122,1111122,1111122' 
DISL,ioos:station:DISL:DISL:1,2014-08-01T04:30:00Z,30.2513,-88.0778,9.68,1.21,294.6,-9999.0,'1111122,1111122,1111122' 
DISL,ioos:station:DISL:DISL:1,2014-08-01T05:00:00Z,30.2513,-88.0778,9.68,2.09,305.6,-9999.0,'1111122,1111122,1111122' 
DISL,ioos:station:DISL:DISL:1,2014-08-01T05:30:00Z,30.2513,-88.0778,9.68,3.47,316.5,-9999.0,'1111122,1111122,1111122' 
DISL,ioos:station:DISL:DISL:1,2014-08-01T06:00:00Z,30.2513,-88.0778,9.68,3.62,313.3,-9999.0,'1111122,1111122,1111122' 
DISL,ioos:station:DISL:DISL:1,2014-08-01T06:30:00Z,30.2513,-88.0778,9.68,3.55,330.0,-9999.0,'1111122,1111122,1111122' 
DISL,ioos:station:DISL:DISL:1,2014-08-01T07:00:00Z,30.2513,-88.0778,9.68,3.27,356.8,-9999.0,'1111122,1111122,1111122' 
DISL,ioos:station:DISL:DISL:1,2014-08-01T07:30:00Z,30.2513,-88.0778,9.68,3.98,23.4,-9999.0,'1111122,1111122,1111122' 
DISL,ioos:station:DISL:DISL:1,2014-08-01T08:00:00Z,30.2513,-88.0778,9.68,3.84,26.12,-9999.0,'1111122,1111122,1111122' 
DISL,ioos:station:DISL:DISL:1,2014-08-01T08:30:00Z,30.2513,-88.0778,9.68,4.9,15.64,-9999.0,'1111122,1111122,1111122' 
DISL,ioos:station:DISL:DISL:1,2014-08-01T09:00:00Z,30.2513,-88.0778,9.68,4.57,26.58,-9999.0,'1111122,1111122,1111122' 
DISL,ioos:station:DISL:DISL:1,2014-08-01T09:30:00Z,30.2513,-88.0778,9.68,4.38,11.3,-9999.0,'1111122,1111122,1111122' 
DISL,ioos:station:DISL:DISL:1,2014-08-01T10:00:00Z,30.2513,-88.0778,9.68,4.59,20.69,-9999.0,'1111122,1111122,1111122' 
DISL,ioos:station:DISL:DISL:1,2014-08-01T10:30:00Z,30.2513,-88.0778,9.68,3.66,33.96,-9999.0,'1111122,1111122,1111122' 
DISL,ioos:station:DISL:DISL:1,2014-08-01T11:00:00Z,30.2513,-88.0778,9.68,4.22,38.3,-9999.0,'1111122,1111122,1111122' 
DISL,ioos:station:DISL:DISL:1,2014-08-01T11:30:00Z,30.2513,-88.0778,9.68,3.88,31.62,-9999.0,'1111122,1111122,1111122' 
DISL,ioos:station:DISL:DISL:1,2014-08-01T12:00:00Z,30.2513,-88.0778,9.68,3.86,30.87,-9999.0,'1111122,1111122,1111122' 
DISL,ioos:station:DISL:DISL:1,2014-08-01T12:30:00Z,30.2513,-88.0778,9.68,3.03,47.71,-9999.0,'1111122,1111122,1111122' 
DISL,ioos:station:DISL:DISL:1,2014-08-01T13:00:00Z,30.2513,-88.0778,9.68,2.94,26.03,-9999.0,'1111122,1111122,1111122' 
DISL,ioos:station:DISL:DISL:1,2014-08-01T13:30:00Z,30.2513,-88.0778,9.68,1.99,39.34,-9999.0,'1111122,1111122,1111122' 
DISL,ioos:station:DISL:DISL:1,2014-08-01T14:00:00Z,30.2513,-88.0778,9.68,2.25,53.37,-9999.0,'1111122,1111122,1111122' 
DISL,ioos:station:DISL:DISL:1,2014-08-01T14:30:00Z,30.2513,-88.0778,9.68,1.89,37.08,-9999.0,'1111122,1111122,1111122' 
DISL,ioos:station:DISL:DISL:1,2014-08-01T15:00:00Z,30.2513,-88.0778,9.68,3.07,36.13,-9999.0,'1111122,1111122,1111122' 
DISL,ioos:station:DISL:DISL:1,2014-08-01T15:30:00Z,30.2513,-88.0778,9.68,2.66,43.68,-9999.0,'1111122,1111122,1111122' 
DISL,ioos:station:DISL:DISL:1,2014-08-01T16:00:00Z,30.2513,-88.0778,9.68,2.37,25.09,-9999.0,'1111122,1111122,1111122' 
DISL,ioos:station:DISL:DISL:1,2014-08-01T16:30:00Z,30.2513,-88.0778,9.68,0.26,6.126,-9999.0,'1111122,1111122,1111122' 
DISL,ioos:station:DISL:DISL:1,2014-08-01T17:00:00Z,30.2513,-88.0778,9.68,1.53,43.9,-9999.0,'1111122,1111122,1111122' 
DISL,ioos:station:DISL:DISL:1,2014-08-01T17:30:00Z,30.2513,-88.0778,9.68,1.69,27.01,-9999.0,'1111122,1111122,1111122' 
DISL,ioos:station:DISL:DISL:1,2014-08-01T18:00:00Z,30.2513,-88.0778,9.68,1.72,14.54,-9999.0,'1111122,1111122,1111122' 
DISL,ioos:station:DISL:DISL:1,2014-08-01T18:30:00Z,30.2513,-88.0778,9.68,1.89,2.186,-9999.0,'1111122,1111122,1111122' 
DISL,ioos:station:DISL:DISL:1,2014-08-01T19:00:00Z,30.2513,-88.0778,9.68,1.83,21.29,-9999.0,'1111122,1111122,1111122' 
DISL,ioos:station:DISL:DISL:1,2014-08-01T19:30:00Z,30.2513,-88.0778,9.68,1.74,29.51,-9999.0,'1111122,1111122,1111122' 
DISL,ioos:station:DISL:DISL:1,2014-08-01T20:00:00Z,30.2513,-88.0778,9.68,1.59,65.45,-9999.0,'1111122,1111122,1111122' 
DISL,ioos:station:DISL:DISL:1,2014-08-01T20:30:00Z,30.2513,-88.0778,9.68,1.56,76.49,-9999.0,'1111122,1111122,1111122' 
DISL,ioos:station:DISL:DISL:1,2014-08-01T21:00:00Z,30.2513,-88.0778,9.68,0.0,0.0,-9999.0,'1114422,1114422,1111122' 
DISL,ioos:station:DISL:DISL:1,2014-08-01T21:30:00Z,30.2513,-88.0778,9.68,0.0,0.0,-9999.0,'1114422,1114422,1111122' 
DISL,ioos:station:DISL:DISL:1,2014-08-01T22:00:00Z,30.2513,-88.0778,9.68,0.0,0.0,-9999.0,'1114422,1114422,1111122' 
DISL,ioos:station:DISL:DISL:1,2014-08-01T22:30:00Z,30.2513,-88.0778,9.68,1.15,311.0,-9999.0,'1111122,1111122,1111122' 
DISL,ioos:station:DISL:DISL:1,2014-08-01T23:00:00Z,30.2513,-88.0778,9.68,1.66,286.8,-9999.0,'1111122,1111122,1111122' 
DISL,ioos:station:DISL:DISL:1,2014-08-01T23:30:00Z,30.2513,-88.0778,9.68,0.92,327.4,-9999.0,'1111122,1111122,1111122' 
DISL,ioos:station:DISL:DISL:1,2014-08-02T00:00:00Z,30.2513,-88.0778,9.68,0.8,300.1,-9999.0,'1111122,1111122,1111122' 
DISL,ioos:station:DISL:DISL:1,2014-08-02T00:30:00Z,30.2513,-88.0778,9.68,0.0,0.0,-9999.0,'1114422,1114422,1111122' 
DISL,ioos:station:DISL:DISL:1,2014-08-02T01:00:00Z,30.2513,-88.0778,9.68,0.0,270.2,-9999.0,'1114422,1111122,1111122' 
DISL,ioos:station:DISL:DISL:1,2014-08-02T01:30:00Z,30.2513,-88.0778,9.68,0.0,0.0,-9999.0,'1114422,1114422,1111122' 
DISL,ioos:station:DISL:DISL:1,2014-08-02T02:00:00Z,30.2513,-88.0778,9.68,0.0,0.0,-9999.0,'1114422,1114422,1111122' 
DISL,ioos:station:DISL:DISL:1,2014-08-02T02:30:00Z,30.2513,-88.0778,9.68,0.0,0.0,-9999.0,'1114422,1114422,1111122' 
DISL,ioos:station:DISL:DISL:1,2014-08-02T03:00:00Z,30.2513,-88.0778,9.68,0.0,0.0,-9999.0,'1114422,1114422,1111122' 
DISL,ioos:station:DISL:DISL:1,2014-08-02T03:30:00Z,30.2513,-88.0778,9.68,2.65,337.2,-9999.0,'1111122,1111122,1111122' 
DISL,ioos:station:DISL:DISL:1,2014-08-02T04:00:00Z,30.2513,-88.0778,9.68,2.47,358.4,-9999.0,'1111122,1111122,1111122' 
DISL,ioos:station:DISL:DISL:1,2014-08-02T04:30:00Z,30.2513,-88.0778,9.68,2.54,336.6,-9999.0,'1111122,1111122,1111122' 
DISL,ioos:station:DISL:DISL:1,2014-08-02T05:00:00Z,30.2513,-88.0778,9.68,1.75,357.6,-9999.0,'1111122,1111122,1111122' 
DISL,ioos:station:DISL:DISL:1,2014-08-02T05:30:00Z,30.2513,-88.0778,9.68,2.59,354.2,-9999.0,'1111122,1111122,1111122' 
DISL,ioos:station:DISL:DISL:1,2014-08-02T06:00:00Z,30.2513,-88.0778,9.68,2.45,7.082,-9999.0,'1111122,1111122,1111122' 
DISL,ioos:station:DISL:DISL:1,2014-08-02T06:30:00Z,30.2513,-88.0778,9.68,2.48,52.57,-9999.0,'1111122,1111122,1111122' 
DISL,ioos:station:DISL:DISL:1,2014-08-02T07:00:00Z,30.2513,-88.0778,9.68,2.92,56.15,-9999.0,'1111122,1111122,1111122' 
DISL,ioos:station:DISL:DISL:1,2014-08-02T07:30:00Z,30.2513,-88.0778,9.68,2.43,61.08,-9999.0,'1111122,1111122,1111122' 
DISL,ioos:station:DISL:DISL:1,2014-08-02T08:00:00Z,30.2513,-88.0778,9.68,2.45,46.62,-9999.0,'1111122,1111122,1111122' 
DISL,ioos:station:DISL:DISL:1,2014-08-02T08:30:00Z,30.2513,-88.0778,9.68,2.48,34.43,-9999.0,'1111122,1111122,1111122' 
DISL,ioos:station:DISL:DISL:1,2014-08-02T09:00:00Z,30.2513,-88.0778,9.68,2.37,25.24,-9999.0,'1111122,1111122,1111122' 
DISL,ioos:station:DISL:DISL:1,2014-08-02T09:30:00Z,30.2513,-88.0778,9.68,0.49,15.31,-9999.0,'1111122,1111122,1111122' 
DISL,ioos:station:DISL:DISL:1,2014-08-02T10:00:00Z,30.2513,-88.0778,9.68,1.39,10.09,-9999.0,'1111122,1111122,1111122' 
DISL,ioos:station:DISL:DISL:1,2014-08-02T10:30:00Z,30.2513,-88.0778,9.68,2.05,350.5,-9999.0,'1111122,1111122,1111122' 
DISL,ioos:station:DISL:DISL:1,2014-08-02T11:00:00Z,30.2513,-88.0778,9.68,1.9,13.3,-9999.0,'1111122,1111122,1111122' 
DISL,ioos:station:DISL:DISL:1,2014-08-02T11:30:00Z,30.2513,-88.0778,9.68,2.51,352.5,-9999.0,'1111122,1111122,1111122' 
DISL,ioos:station:DISL:DISL:1,2014-08-02T12:00:00Z,30.2513,-88.0778,9.68,2.65,6.561,-9999.0,'1111122,1111122,1111122' 
DISL,ioos:station:DISL:DISL:1,2014-08-02T12:30:00Z,30.2513,-88.0778,9.68,3.3,1.438,-9999.0,'1111122,1111122,1111122' 
DISL,ioos:station:DISL:DISL:1,2014-08-02T13:00:00Z,30.2513,-88.0778,9.68,3.77,12.78,-9999.0,'1111122,1111122,1111122' 
DISL,ioos:station:DISL:DISL:1,2014-08-02T13:30:00Z,30.2513,-88.0778,9.68,3.56,20.4,-9999.0,'1111122,1111122,1111122' 
DISL,ioos:station:DISL:DISL:1,2014-08-02T14:00:00Z,30.2513,-88.0778,9.68,3.66,16.1,-9999.0,'1111122,1111122,1111122' 
DISL,ioos:station:DISL:DISL:1,2014-08-02T14:30:00Z,30.2513,-88.0778,9.68,3.65,13.55,-9999.0,'1111122,1111122,1111122' 
DISL,ioos:station:DISL:DISL:1,2014-08-02T15:00:00Z,30.2513,-88.0778,9.68,2.97,22.61,-9999.0,'1111122,1111122,1111122' 
DISL,ioos:station:DISL:DISL:1,2014-08-02T15:30:00Z,30.2513,-88.0778,9.68,2.6,13.95,-9999.0,'1111122,1111122,1111122' 
DISL,ioos:station:DISL:DISL:1,2014-08-02T16:00:00Z,30.2513,-88.0778,9.68,1.53,30.82,-9999.0,'1111122,1111122,1111122' 
DISL,ioos:station:DISL:DISL:1,2014-08-02T16:30:00Z,30.2513,-88.0778,9.68,1.15,43.86,-9999.0,'1111122,1111122,1111122' 
DISL,ioos:station:DISL:DISL:1,2014-08-02T17:00:00Z,30.2513,-88.0778,9.68,0.0,0.0,-9999.0,'1114422,1114422,1111122' 
DISL,ioos:station:DISL:DISL:1,2014-08-02T17:30:00Z,30.2513,-88.0778,9.68,0.0,0.0,-9999.0,'1114422,1114422,1111122' 
DISL,ioos:station:DISL:DISL:1,2014-08-02T18:00:00Z,30.2513,-88.0778,9.68,1.8,95.5,-9999.0,'1111122,1111122,1111122' 
DISL,ioos:station:DISL:DISL:1,2014-08-02T18:30:00Z,30.2513,-88.0778,9.68,1.84,101.1,-9999.0,'1111122,1111122,1111122' 
DISL,ioos:station:DISL:DISL:1,2014-08-02T19:00:00Z,30.2513,-88.0778,9.68,2.18,162.0,-9999.0,'1111122,1111122,1111122' 
DISL,ioos:station:DISL:DISL:1,2014-08-02T19:30:00Z,30.2513,-88.0778,9.68,2.04,164.6,-9999.0,'1111122,1111122,1111122' 
DISL,ioos:station:DISL:DISL:1,2014-08-02T20:00:00Z,30.2513,-88.0778,9.68,2.3,171.4,-9999.0,'1111122,1111122,1111122' 
DISL,ioos:station:DISL:DISL:1,2014-08-02T20:30:00Z,30.2513,-88.0778,9.68,1.9,170.2,-9999.0,'1111122,1111122,1111122' 
DISL,ioos:station:DISL:DISL:1,2014-08-02T21:00:00Z,30.2513,-88.0778,9.68,1.81,181.8,-9999.0,'1111122,1111122,1111122' 
DISL,ioos:station:DISL:DISL:1,2014-08-02T21:30:00Z,30.2513,-88.0778,9.68,2.05,193.4,-9999.0,'1111122,1111122,1111122' 
DISL,ioos:station:DISL:DISL:1,2014-08-02T22:00:00Z,30.2513,-88.0778,9.68,1.63,189.0,-9999.0,'1111122,1111122,1111122' 
DISL,ioos:station:DISL:DISL:1,2014-08-02T22:30:00Z,30.2513,-88.0778,9.68,1.72,192.3,-9999.0,'1111122,1111122,1111122' 
DISL,ioos:station:DISL:DISL:1,2014-08-02T23:00:00Z,30.2513,-88.0778,9.68,2.38,176.7,-9999.0,'1111122,1111122,1111122' 
DISL,ioos:station:DISL:DISL:1,2014-08-02T23:30:00Z,30.2513,-88.0778,9.68,1.38,196.9,-9999.0,'1111122,1111122,1111122' 
DISL,ioos:station:DISL:DISL:1,2014-08-03T00:00:00Z,30.2513,-88.0778,9.68,1.51,184.9,-9999.0,'1111122,1111122,1111122' 
DISL,ioos:station:DISL:DISL:1,2014-08-03T00:30:00Z,30.2513,-88.0778,9.68,0.83,220.2,-9999.0,'1111122,1111122,1111122' 
DISL,ioos:station:DISL:DISL:1,2014-08-03T01:00:00Z,30.2513,-88.0778,9.68,1.24,247.9,-9999.0,'1111122,1111122,1111122' 
DISL,ioos:station:DISL:DISL:1,2014-08-03T01:30:00Z,30.2513,-88.0778,9.68,1.14,265.9,-9999.0,'1111122,1111122,1111122' 
DISL,ioos:station:DISL:DISL:1,2014-08-03T02:00:00Z,30.2513,-88.0778,9.68,1.4,262.7,-9999.0,'1111122,1111122,1111122' 
DISL,ioos:station:DISL:DISL:1,2014-08-03T02:30:00Z,30.2513,-88.0778,9.68,0.88,272.0,-9999.0,'1111122,1111122,1111122' 
DISL,ioos:station:DISL:DISL:1,2014-08-03T03:00:00Z,30.2513,-88.0778,9.68,1.29,270.2,-9999.0,'1111122,1111122,1111122' 
DISL,ioos:station:DISL:DISL:1,2014-08-03T03:30:00Z,30.2513,-88.0778,9.68,2.23,297.5,-9999.0,'1111122,1111122,1111122' 
DISL,ioos:station:DISL:DISL:1,2014-08-03T04:00:00Z,30.2513,-88.0778,9.68,0.23,260.4,-9999.0,'1111122,1111122,1111122' 
DISL,ioos:station:DISL:DISL:1,2014-08-03T04:30:00Z,30.2513,-88.0778,9.68,2.2,318.0,-9999.0,'1111122,1111122,1111122' 
DISL,ioos:station:DISL:DISL:1,2014-08-03T05:00:00Z,30.2513,-88.0778,9.68,2.89,317.6,-9999.0,'1111122,1111122,1111122' 
DISL,ioos:station:DISL:DISL:1,2014-08-03T05:30:00Z,30.2513,-88.0778,9.68,3.48,331.8,-9999.0,'1111122,1111122,1111122' 
DISL,ioos:station:DISL:DISL:1,2014-08-03T06:00:00Z,30.2513,-88.0778,9.68,3.54,333.0,-9999.0,'1111122,1111122,1111122' 
DISL,ioos:station:DISL:DISL:1,2014-08-03T06:30:00Z,30.2513,-88.0778,9.68,3.35,334.5,-9999.0,'1111122,1111122,1111122' 
DISL,ioos:station:DISL:DISL:1,2014-08-03T07:00:00Z,30.2513,-88.0778,9.68,4.18,343.1,-9999.0,'1111122,1111122,1111122' 
DISL,ioos:station:DISL:DISL:1,2014-08-03T07:30:00Z,30.2513,-88.0778,9.68,3.5,348.9,-9999.0,'1111122,1111122,1111122' 
DISL,ioos:station:DISL:DISL:1,2014-08-03T08:00:00Z,30.2513,-88.0778,9.68,3.64,342.2,-9999.0,'1111122,1111122,1111122' 
DISL,ioos:station:DISL:DISL:1,2014-08-03T08:30:00Z,30.2513,-88.0778,9.68,3.53,344.6,-9999.0,'1111122,1111122,1111122' 
DISL,ioos:station:DISL:DISL:1,2014-08-03T09:00:00Z,30.2513,-88.0778,9.68,3.82,359.4,-9999.0,'1111122,1111122,1111122' 
DISL,ioos:station:DISL:DISL:1,2014-08-03T09:30:00Z,30.2513,-88.0778,9.68,4.41,20.35,-9999.0,'1111122,1111122,1111122' 
DISL,ioos:station:DISL:DISL:1,2014-08-03T10:00:00Z,30.2513,-88.0778,9.68,3.58,34.88,-9999.0,'1111122,1111122,1111122' 
DISL,ioos:station:DISL:DISL:1,2014-08-03T10:30:00Z,30.2513,-88.0778,9.68,3.89,68.11,-9999.0,'1111122,1111122,1111122' 
DISL,ioos:station:DISL:DISL:1,2014-08-03T11:00:00Z,30.2513,-88.0778,9.68,2.77,62.32,-9999.0,'1111122,1111122,1111122' 
DISL,ioos:station:DISL:DISL:1,2014-08-03T11:30:00Z,30.2513,-88.0778,9.68,3.61,76.07,-9999.0,'1111122,1111122,1111122' 
DISL,ioos:station:DISL:DISL:1,2014-08-03T12:00:00Z,30.2513,-88.0778,9.68,3.7,55.89,-9999.0,'1111122,1111122,1111122' 
DISL,ioos:station:DISL:DISL:1,2014-08-03T12:30:00Z,30.2513,-88.0778,9.68,4.33,70.94,-9999.0,'1111122,1111122,1111122' 
DISL,ioos:station:DISL:DISL:1,2014-08-03T13:00:00Z,30.2513,-88.0778,9.68,4.32,74.51,-9999.0,'1111122,1111122,1111122' 
DISL,ioos:station:DISL:DISL:1,2014-08-03T13:30:00Z,30.2513,-88.0778,9.68,3.31,72.96,-9999.0,'1111122,1111122,1111122' 
DISL,ioos:station:DISL:DISL:1,2014-08-03T14:00:00Z,30.2513,-88.0778,9.68,2.82,50.47,-9999.0,'1111122,1111122,1111122' 
DISL,ioos:station:DISL:DISL:1,2014-08-03T14:30:00Z,30.2513,-88.0778,9.68,2.5,41.9,-9999.0,'1111122,1111122,1111122' 
DISL,ioos:station:DISL:DISL:1,2014-08-03T15:00:00Z,30.2513,-88.0778,9.68,2.67,40.0,-9999.0,'1111122,1111122,1111122' 
DISL,ioos:station:DISL:DISL:1,2014-08-03T15:30:00Z,30.2513,-88.0778,9.68,3.38,30.15,-9999.0,'1111122,1111122,1111122' 
DISL,ioos:station:DISL:DISL:1,2014-08-03T16:00:00Z,30.2513,-88.0778,9.68,3.21,34.1,-9999.0,'1111122,1111122,1111122' 
DISL,ioos:station:DISL:DISL:1,2014-08-03T16:30:00Z,30.2513,-88.0778,9.68,2.99,29.27,-9999.0,'1111122,1111122,1111122' 
DISL,ioos:station:DISL:DISL:1,2014-08-03T17:00:00Z,30.2513,-88.0778,9.68,2.23,38.71,-9999.0,'1111122,1111122,1111122' 
DISL,ioos:station:DISL:DISL:1,2014-08-03T17:30:00Z,30.2513,-88.0778,9.68,1.35,46.63,-9999.0,'1111122,1111122,1111122' 
DISL,ioos:station:DISL:DISL:1,2014-08-03T18:00:00Z,30.2513,-88.0778,9.68,1.76,23.91,-9999.0,'1111122,1111122,1111122' 
DISL,ioos:station:DISL:DISL:1,2014-08-03T18:30:00Z,30.2513,-88.0778,9.68,0.04,65.35,-9999.0,'1111122,1111122,1111122' 
DISL,ioos:station:DISL:DISL:1,2014-08-03T19:00:00Z,30.2513,-88.0778,9.68,0.72,77.31,-9999.0,'1111122,1111122,1111122' 
DISL,ioos:station:DISL:DISL:1,2014-08-03T19:30:00Z,30.2513,-88.0778,9.68,1.83,93.7,-9999.0,'1111122,1111122,1111122' 
DISL,ioos:station:DISL:DISL:1,2014-08-03T20:00:00Z,30.2513,-88.0778,9.68,2.42,101.8,-9999.0,'1111122,1111122,1111122' 
DISL,ioos:station:DISL:DISL:1,2014-08-03T20:30:00Z,30.2513,-88.0778,9.68,2.61,148.3,-9999.0,'1111122,1111122,1111122' 
DISL,ioos:station:DISL:DISL:1,2014-08-03T21:00:00Z,30.2513,-88.0778,9.68,1.82,148.5,-9999.0,'1111122,1111122,1111122' 
DISL,ioos:station:DISL:DISL:1,2014-08-03T21:30:00Z,30.2513,-88.0778,9.68,1.38,229.1,-9999.0,'1111122,1111122,1111122' 
DISL,ioos:station:DISL:DISL:1,2014-08-03T22:00:00Z,30.2513,-88.0778,9.68,1.56,224.0,-9999.0,'1111122,1111122,1111122' 
DISL,ioos:station:DISL:DISL:1,2014-08-03T22:30:00Z,30.2513,-88.0778,9.68,1.19,267.1,-9999.0,'1111122,1111122,1111122' 
DISL,ioos:station:DISL:DISL:1,2014-08-03T23:00:00Z,30.2513,-88.0778,9.68,0.35,272.8,-9999.0,'1111122,1111122,1111122' 
DISL,ioos:station:DISL:DISL:1,2014-08-03T23:30:00Z,30.2513,-88.0778,9.68,0.8,251.2,-9999.0,'1111122,1111122,1111122' 
DISL,ioos:station:DISL:DISL:1,2014-08-04T00:00:00Z,30.2513,-88.0778,9.68,0.08,249.5,-9999.0,'1111122,1111122,1111122' 
DISL,ioos:station:DISL:DISL:1,2014-08-04T00:30:00Z,30.2513,-88.0778,9.68,1.63,175.0,-9999.0,'1111122,1111122,1111122' 
DISL,ioos:station:DISL:DISL:1,2014-08-04T01:00:00Z,30.2513,-88.0778,9.68,0.0,0.0,-9999.0,'1114422,1114422,1111122' 
DISL,ioos:station:DISL:DISL:1,2014-08-04T01:30:00Z,30.2513,-88.0778,9.68,0.04,277.9,-9999.0,'1111122,1111122,1111122' 
DISL,ioos:station:DISL:DISL:1,2014-08-04T02:00:00Z,30.2513,-88.0778,9.68,0.32,275.5,-9999.0,'1111122,1111122,1111122' 
DISL,ioos:station:DISL:DISL:1,2014-08-04T02:30:00Z,30.2513,-88.0778,9.68,0.0,257.4,-9999.0,'1114422,1111122,1111122' 
DISL,ioos:station:DISL:DISL:1,2014-08-04T03:00:00Z,30.2513,-88.0778,9.68,0.0,0.0,-9999.0,'1114422,1114422,1111122' 
DISL,ioos:station:DISL:DISL:1,2014-08-04T03:30:00Z,30.2513,-88.0778,9.68,1.03,289.9,-9999.0,'1111122,1111122,1111122' 
DISL,ioos:station:DISL:DISL:1,2014-08-04T04:00:00Z,30.2513,-88.0778,9.68,0.0,0.0,-9999.0,'1114422,1114422,1111122' 
DISL,ioos:station:DISL:DISL:1,2014-08-04T04:30:00Z,30.2513,-88.0778,9.68,3.68,325.5,-9999.0,'1111122,1111122,1111122' 
DISL,ioos:station:DISL:DISL:1,2014-08-04T05:00:00Z,30.2513,-88.0778,9.68,3.43,355.4,-9999.0,'1111122,1111122,1111122' 
DISL,ioos:station:DISL:DISL:1,2014-08-04T05:30:00Z,30.2513,-88.0778,9.68,3.95,4.718,-9999.0,'1111122,1111122,1111122' 
DISL,ioos:station:DISL:DISL:1,2014-08-04T06:00:00Z,30.2513,-88.0778,9.68,3.62,14.93,-9999.0,'1111122,1111122,1111122' 
DISL,ioos:station:DISL:DISL:1,2014-08-04T06:30:00Z,30.2513,-88.0778,9.68,3.77,11.68,-9999.0,'1111122,1111122,1111122' 
DISL,ioos:station:DISL:DISL:1,2014-08-04T07:00:00Z,30.2513,-88.0778,9.68,4.66,6.944,-9999.0,'1111122,1111122,1111122' 
DISL,ioos:station:DISL:DISL:1,2014-08-04T07:30:00Z,30.2513,-88.0778,9.68,4.08,5.065,-9999.0,'1111122,1111122,1111122' 
DISL,ioos:station:DISL:DISL:1,2014-08-04T08:00:00Z,30.2513,-88.0778,9.68,3.63,344.5,-9999.0,'1111122,1111122,1111122' 
DISL,ioos:station:DISL:DISL:1,2014-08-04T08:30:00Z,30.2513,-88.0778,9.68,3.7,337.0,-9999.0,'1111122,1111122,1111122' 
DISL,ioos:station:DISL:DISL:1,2014-08-04T09:00:00Z,30.2513,-88.0778,9.68,3.15,2.469,-9999.0,'1111122,1111122,1111122' 
DISL,ioos:station:DISL:DISL:1,2014-08-04T09:30:00Z,30.2513,-88.0778,9.68,3.69,15.93,-9999.0,'1111122,1111122,1111122' 
DISL,ioos:station:DISL:DISL:1,2014-08-04T10:00:00Z,30.2513,-88.0778,9.68,3.52,34.29,-9999.0,'1111122,1111122,1111122' 
DISL,ioos:station:DISL:DISL:1,2014-08-04T10:30:00Z,30.2513,-88.0778,9.68,3.84,45.5,-9999.0,'1111122,1111122,1111122' 
DISL,ioos:station:DISL:DISL:1,2014-08-04T11:00:00Z,30.2513,-88.0778,9.68,4.31,64.18,-9999.0,'1111122,1111122,1111122' 
DISL,ioos:station:DISL:DISL:1,2014-08-04T11:30:00Z,30.2513,-88.0778,9.68,4.71,47.22,-9999.0,'1111122,1111122,1111122' 
DISL,ioos:station:DISL:DISL:1,2014-08-04T12:00:00Z,30.2513,-88.0778,9.68,4.93,59.11,-9999.0,'1111122,1111122,1111122' 
DISL,ioos:station:DISL:DISL:1,2014-08-04T12:30:00Z,30.2513,-88.0778,9.68,5.89,66.74,-9999.0,'1111122,1111122,1111122' 
DISL,ioos:station:DISL:DISL:1,2014-08-04T13:00:00Z,30.2513,-88.0778,9.68,5.53,73.99,-9999.0,'1111122,1111122,1111122' 
DISL,ioos:station:DISL:DISL:1,2014-08-04T13:30:00Z,30.2513,-88.0778,9.68,4.21,69.13,-9999.0,'1111122,1111122,1111122' 
DISL,ioos:station:DISL:DISL:1,2014-08-04T14:00:00Z,30.2513,-88.0778,9.68,3.86,77.48,-9999.0,'1111122,1111122,1111122' 
DISL,ioos:station:DISL:DISL:1,2014-08-04T14:30:00Z,30.2513,-88.0778,9.68,2.95,87.1,-9999.0,'1111122,1111122,1111122' 
DISL,ioos:station:DISL:DISL:1,2014-08-04T15:00:00Z,30.2513,-88.0778,9.68,2.03,68.11,-9999.0,'1111122,1111122,1111122' 
DISL,ioos:station:DISL:DISL:1,2014-08-04T15:30:00Z,30.2513,-88.0778,9.68,1.72,69.13,-9999.0,'1111122,1111122,1111122' 
DISL,ioos:station:DISL:DISL:1,2014-08-04T16:00:00Z,30.2513,-88.0778,9.68,1.8,23.7,-9999.0,'1111122,1111122,1111122' 
DISL,ioos:station:DISL:DISL:1,2014-08-04T16:30:00Z,30.2513,-88.0778,9.68,1.79,34.26,-9999.0,'1111122,1111122,1111122' 
DISL,ioos:station:DISL:DISL:1,2014-08-04T17:00:00Z,30.2513,-88.0778,9.68,1.48,21.92,-9999.0,'1111122,1111122,1111122' 
DISL,ioos:station:DISL:DISL:1,2014-08-04T17:30:00Z,30.2513,-88.0778,9.68,1.94,2.234,-9999.0,'1111122,1111122,1111122' 
DISL,ioos:station:DISL:DISL:1,2014-08-04T18:00:00Z,30.2513,-88.0778,9.68,2.17,7.488,-9999.0,'1111122,1111122,1111122' 
DISL,ioos:station:DISL:DISL:1,2014-08-04T18:30:00Z,30.2513,-88.0778,9.68,2.23,48.03,-9999.0,'1111122,1111122,1111122' 
DISL,ioos:station:DISL:DISL:1,2014-08-04T19:00:00Z,30.2513,-88.0778,9.68,2.18,55.65,-9999.0,'1111122,1111122,1111122' 
DISL,ioos:station:DISL:DISL:1,2014-08-04T19:30:00Z,30.2513,-88.0778,9.68,1.57,79.7,-9999.0,'1111122,1111122,1111122' 
DISL,ioos:station:DISL:DISL:1,2014-08-04T20:00:00Z,30.2513,-88.0778,9.68,0.73,104.2,-9999.0,'1111122,1111122,1111122' 
DISL,ioos:station:DISL:DISL:1,2014-08-04T20:30:00Z,30.2513,-88.0778,9.68,1.47,128.6,-9999.0,'1111122,1111122,1111122' 
DISL,ioos:station:DISL:DISL:1,2014-08-04T21:00:00Z,30.2513,-88.0778,9.68,1.03,95.7,-9999.0,'1111122,1111122,1111122' 
DISL,ioos:station:DISL:DISL:1,2014-08-04T21:30:00Z,30.2513,-88.0778,9.68,0.19,109.8,-9999.0,'1111122,1111122,1111122' 
DISL,ioos:station:DISL:DISL:1,2014-08-04T22:00:00Z,30.2513,-88.0778,9.68,2.16,177.0,-9999.0,'1111122,1111122,1111122' 
DISL,ioos:station:DISL:DISL:1,2014-08-04T22:30:00Z,30.2513,-88.0778,9.68,2.27,198.6,-9999.0,'1111122,1111122,1111122' 
DISL,ioos:station:DISL:DISL:1,2014-08-04T23:00:00Z,30.2513,-88.0778,9.68,2.48,197.6,-9999.0,'1111122,1111122,1111122' 
DISL,ioos:station:DISL:DISL:1,2014-08-04T23:30:00Z,30.2513,-88.0778,9.68,1.86,207.7,-9999.0,'1111122,1111122,1111122' 
DISL,ioos:station:DISL:DISL:1,2014-08-05T00:00:00Z,30.2513,-88.0778,9.68,2.26,202.4,-9999.0,'1111122,1111122,1111122' 
DISL,ioos:station:DISL:DISL:1,2014-08-05T00:30:00Z,30.2513,-88.0778,9.68,1.7,186.9,-9999.0,'1111122,1111122,1111122' 
DISL,ioos:station:DISL:DISL:1,2014-08-05T01:00:00Z,30.2513,-88.0778,9.68,1.67,212.7,-9999.0,'1111122,1111122,1111122' 
DISL,ioos:station:DISL:DISL:1,2014-08-05T01:30:00Z,30.2513,-88.0778,9.68,1.01,276.3,-9999.0,'1111122,1111122,1111122' 
DISL,ioos:station:DISL:DISL:1,2014-08-05T02:00:00Z,30.2513,-88.0778,9.68,0.47,202.6,-9999.0,'1111122,1111122,1111122' 
DISL,ioos:station:DISL:DISL:1,2014-08-05T02:30:00Z,30.2513,-88.0778,9.68,0.14,227.8,-9999.0,'1111122,1111122,1111122' 
DISL,ioos:station:DISL:DISL:1,2014-08-05T03:00:00Z,30.2513,-88.0778,9.68,0.0,0.0,-9999.0,'1114422,1114422,1111122' 
DISL,ioos:station:DISL:DISL:1,2014-08-05T03:30:00Z,30.2513,-88.0778,9.68,0.11,121.5,-9999.0,'1111122,1111122,1111122' 
DISL,ioos:station:DISL:DISL:1,2014-08-05T04:00:00Z,30.2513,-88.0778,9.68,0.26,276.0,-9999.0,'1111122,1111122,1111122' 